Regional Weather Roundup
Issued by NWS

Home | Current Version | Previous Version | Graphics & Text | Print | Product List | Glossary On
Versions: 1 2 3 4 5 6 7 8 9 10 11 12 13 14 15 16 17 18 19 20 21 22 23 24 25 26 27
000
ASUS45 KBOU 242007
RWRCO

WEATHER ROUNDUP FOR COLORADO
NATIONAL WEATHER SERVICE DENVER/BOULDER CO
200 PM MDT FRI OCT 24 2014

NOTE: "FAIR" INDICATES FEW OR NO CLOUDS BELOW 12000 FEET WITH NO
SIGNIFICANT WEATHER AND/OR OBSTRUCTIONS TO VISIBILITY.

COZ001>005-013-030-031-242100-
...NORTHWEST COLORADO...

CITY           SKY/WX    TMP DP  RH WIND       PRES   REMARKS
CRAIG          SUNNY     72  29  20 SW17G24   30.27F
HAYDEN         SUNNY     70  21  16 W14G20    30.28F
MEEKER         SUNNY     72  25  17 W13       30.28F
MOUNT WERNER   NOT AVBL
STEAMBOAT SPGS SUNNY     65  27  23 W6        30.30F
WALDEN         SUNNY     63  18  17 SW18G25   30.35F
$$

COZ006>008-011-242100-
...WEST CENTRAL VALLEYS...

CITY           SKY/WX    TMP DP  RH WIND       PRES   REMARKS
GRAND JUNCTION SUNNY     69  33  26 CALM      30.25F
MONTROSE       SUNNY     71  33  24 NW6       30.30F
EAGLE          SUNNY     70  28  21 CALM      30.32F
RIFLE          SUNNY     67  32  27 CALM      30.28F
DELTA          SUNNY     75  32  20 CALM      30.26F
NUCLA          SUNNY     72  32  23 NW5       30.34F
$$

COZ017>023-064>068-242100-
...SOUTHWEST COLORADO...

CITY           SKY/WX    TMP DP  RH WIND       PRES   REMARKS
DURANGO        SUNNY     68  34  28 W5        30.34F
CORTEZ         SUNNY     73  32  22 S6        30.32F
PAGOSA SPRINGS SUNNY     66  28  23 SW3       30.40F
TELLURIDE      SUNNY     65  17  15 SW9       30.49F
WOLF CREEK PAS SUNNY     50  21  32 SW13G21     N/A
$$

COZ009-010-012-014-032>034-037-058>063-242100-
...CENTRAL COLORADO...

CITY           SKY/WX    TMP DP  RH WIND       PRES   REMARKS
ASPEN          SUNNY     67  23  19 N9G17     30.36F
BUENA VISTA    SUNNY     70  14  11 CALM      30.34F
COPPER MTN     SUNNY     54  10  17 SW6       30.62S
BERTHOUD PASS  FAIR      41  37  87 MISG      30.64S
COTTONWOOD PAS SUNNY     64  -6   6 W9G18     30.48S
GUNNISON       SUNNY     59  28  31 CALM      30.43F
KREMMLING      SUNNY     70  18  13 W14G22      N/A
LEADVILLE      SUNNY     60  14  16 N15G21    30.47F
MONARCH PASS   SUNNY     46  18  31 SW24G37   30.72F
SALIDA         SUNNY     75  17  11 SW14      30.39F
SUNLIGHT       SUNNY     59  27  29 CALM      30.58F
WILKERSON PASS NOT AVBL
$$

COZ069>075-242100-
...SAN LUIS VALLEY/SANGRE DE CRISTO MOUNTAINS...

CITY           SKY/WX    TMP DP  RH WIND       PRES   REMARKS
ALAMOSA        SUNNY     68  25  19 W3        30.37F
LA VETA PASS   NOT AVBL
SAGUACHE       SUNNY     64  30  27 S9        30.39F
$$

COZ035-036-038>040-242100-
...NORTHERN COLORADO FRONT RANGE...

CITY           SKY/WX    TMP DP  RH WIND       PRES   REMARKS
DENVER INTL AP MOSUNNY   80  19  10 CALM      30.15F
DMNS CITY PARK   N/A     81  19  10 SE8       30.13F
AURORA         MOSUNNY   79  19  10 VRB3      30.17F
FRONT RANGE AP MOSUNNY   81  23  12 CALM      30.16F
ERIE MUNI ARPT MOSUNNY   81  21  10 SE9       30.12F
BOULDER MUN AP MOSUNNY   81  28  15 E6        30.13F
CENTENNIAL     MOSUNNY   78  16   9 E7        30.18F
BROOMFIELD     MOSUNNY   81  21  11 SE12      30.16F
FORT COLLINS   MOSUNNY   77  37  24 E7        30.13F
LONGMONT       MOSUNNY   81  28  14 SE6       30.14F
$$

COZ041-046-047-076>085-087-088-242100-
...PIKES PEAK/PALMER DIVIDE AND SOUTHERN FOOTHILLS...

CITY           SKY/WX    TMP DP  RH WIND       PRES   REMARKS
COLO. SPRINGS  MOSUNNY   78  19  11 S15       30.22F
A. F. ACADEMY  SUNNY     77  14   9 SE10      30.23F
ELLICOTT       NOT AVBL
FALCON         SUNNY     77  18  11 S8        30.27F
FORT CARSON    SUNNY     79  18  10 S15       30.19F
LIMON          SUNNY     79  20  11 CALM      30.17F
MONUMENT HILL  SUNNY     73  16  11 CALM      30.26F
TRINIDAD       SUNNY     79  31  17 E6        30.19F
$$

COZ042>045-048>051-090-091-242100-
...NORTHEAST COLORADO...

CITY           SKY/WX    TMP DP  RH WIND       PRES   REMARKS
GREELEY ARPT   MOSUNNY   77  28  16 S3        30.12F
AKRON          SUNNY     80  24  12 W7        30.12F
BURLINGTON     SUNNY     84  21  10 SW3       30.09F
WRAY           MOSUNNY   89  22   9 W15       30.05F
STERLING       SUNNY     88  30  12 NW9G21    30.06F
HOLYOKE        MOSUNNY   86  27  11 NW10G17   30.05F
FORT MORGAN    SUNNY     80  26  13 SW3       30.11F
$$

COZ086-089-092>099-242100-
...SOUTHEAST COLORADO...

CITY           SKY/WX    TMP DP  RH WIND       PRES   REMARKS
PUEBLO         SUNNY     83  19   9 E6        30.12F
LA JUNTA       SUNNY     85  27  12 SW10      30.09F
LAMAR          SUNNY     85  36  17 W8        30.06F
SPRINGFIELD      N/A     84  33  16 S10G17    30.11F
$$



USA.gov is the U.S. government's official web portal to all federal, state and local government web resources and services.